weather.gov     
National Weather Service

Regional Weather Roundup
NWS Homepage
This page is being discontinued on March 12, 2014.
The same data is available at this site. Please update your bookmarks.
Thank you, and we apologize for the inconvenience.
Please send an email to SR-SRH.Webmaster@noaa.gov with any concerns.


Current Version
Previous Version:    01  02  03  04  05  06  07  08  09  10  11  12  13  14  15  16  17  18  19  20  21  22  23  24  25  26  
[Printable]
088
ASUS42 KILM 240210
RWRILM
RWRILM
REGIONAL HOURLY WEATHER ROUNDUP
NATIONAL WEATHER SERVICE WILMINGTON NC
1000 PM EDT WED APR 23 2014

NOTE: "FAIR" INDICATES FEW OR NO CLOUDS BELOW 12,000 FEET WITH NO
SIGNIFICANT WEATHER AND/OR OBSTRUCTIONS TO VISIBILITY.

...............WFO WILMINGTON COUNTY WARNING AREA...............

......COASTAL NC AND SC COUNTIES......

CITY           SKY/WX    TMP DP  RH WIND       PRES   REMARKS
WILMINGTON     CLEAR     58  42  55 CALM      29.91R
SOUTHPORT      CLEAR     60  49  67 CALM      29.92R
N MYRTLE BEACH CLEAR     58  57  97 E3        29.91R FOG
MYRTLE BEACH   CLEAR     63  61  94 CALM      29.90

......INLAND NC AND SC COUNTIES.......

CITY           SKY/WX    TMP DP  RH WIND       PRES   REMARKS
LUMBERTON      CLEAR     50  46  86 CALM      29.91R
ELIZABETHTOWN  CLEAR     58  39  49 CALM      29.92R
WHITEVILLE     CLEAR     58  45  61 CALM      29.92R
FLORENCE       CLEAR     59  40  49 N5        29.91R
DARLINGTON     CLEAR     55  46  71 NW5       29.92R

....................REST OF NORTH CAROLINA......................

.........EASTERN NC.........

CITY           SKY/WX    TMP DP  RH WIND       PRES   REMARKS
CAPE HATTERAS  CLEAR     48  40  73 E3        29.92R
JACKSONVILLE   CLEAR     52  48  87 CALM      29.93R
MOREHEAD CITY  CLEAR     61  41  47 NW5       29.91R
KENANSVILLE    CLEAR     49  40  70 CALM      29.93R
NEW BERN       CLEAR     54  45  71 CALM      29.92R
ELIZABETH CITY CLEAR     56  36  47 NW6       29.91R

.........CENTRAL NC.........

CITY           SKY/WX    TMP DP  RH WIND       PRES   REMARKS
RALEIGH DURHAM CLEAR     56  35  45 CALM      29.94R
ROCKY MOUNT    CLEAR     54  39  57 CALM      29.92R
ROANOKE RAPIDS NOT AVBL
FAYETTEVILLE   CLEAR     59  36  42 CALM      29.92R
HOFFMAN        CLEAR     54  45  72 CALM      29.94R

.........WESTERN NC.........

CITY           SKY/WX    TMP DP  RH WIND       PRES   REMARKS
CHARLOTTE      CLEAR     59  31  34 N6G18     29.95R
GREENSBORO     CLEAR     59  27  29 N3        29.96R
HICKORY        NOT AVBL
BOONE          NOT AVBL
ASHEVILLE      NOT AVBL

.....................REST OF SOUTH CAROLINA.....................

.........EASTERN SC.........

CITY           SKY/WX    TMP DP  RH WIND       PRES   REMARKS
CHARLESTON     CLEAR     68  51  54 CALM      29.90R
BEAUFORT MCAS  CLEAR     65  52  62 CALM      29.89R
HILTON HEAD    NOT AVBL

.........CENTRAL SC.........

CITY           SKY/WX    TMP DP  RH WIND       PRES   REMARKS
COLUMBIA       CLEAR     61  47  59 CALM      29.90R
ORANGEBURG     CLEAR     61  48  62 CALM      29.90R
SUMTER SHAW    CLEAR     60  44  55 NE2       29.90R

.........WESTERN SC.........

CITY           SKY/WX    TMP DP  RH WIND       PRES   REMARKS
GREENVILLE     NOT AVBL
ROCK HILL      CLEAR     54  39  57 N5        29.94R
ANDERSON       CLEAR     62  45  53 E7        29.91R
CLEMSON        NOT AVBL
GREENWOOD      CLEAR     59  47  64 NE5       29.93R


...................COASTAL AND OFFSHORE REPORTS..................

................LOCAL PIERS AND NC RESERVE................


STATION/POSITION TIME  SKY/WX   TEMP    WIND        PRES    VSBY
                                AIR SEA DIR/SP/G
                 (UTC)          (F)     (DEG/KT/KT) (MB)    (MI)
JOHNY MRCER PIER 0200            65 61  360/  6/  7 1012.1R
NC RESRV MASNBRO NOT AVBL
OCEAN CREST PIER 0200            67 60   80/  8/ 12 1011.8R
SPRINGMAID  PIER 0200            64 62   20/  2/  3 1012.2R


................COASTAL AND OFFSHORE BUOYS................


STATION/POSITION TIME  SKY/WX   TEMP    WIND        PRES    VSBY
                                AIR SEA DIR/SP/G
                 (UTC)          (F)     (DEG/KT/KT) (MB)    (MI)
DIMNDSHOAL 41025 0200            61 75   20/ 12/ 16 1012.8R
WVE H/P(F/S)=  4/ 9 WND WVE H/P(F/S)=  2/ 5 SWL H/P/D(F/S/D)=  3/ 40/ 9

CAPE LOOKOUT     0100            63     320/  3/  5 1012.0R
ONSLOW BAY 41036 0100            68 70  360/ 16/ 17 1012.6R
5 WRITEBCH 41038 0100            66 64   20/  8/ 10 1012.2R
MASONBORO  41110 0200               64                N/A
WVE H/P(F/S)=  2/ 8 WND WVE H/P(F/S)=  2/ 8

WILM HARBR 41108 0200               64                N/A
WVE H/P(F/S)=  2/ 8 WND WVE H/P(F/S)=  2/ 8

27WRITEBCH 41037 0100            66      10/ 16/ 17 1012.2R
FRYING PAN 41013 0200            66 68  360/ 10/ 10 1012.6R
WVE H/P(F/S)=  2/ 8 WND WVE H/P(F/S)=  2/ 3 SWL H/P/D(F/S/D)=  2/100/ 8

SUNST NRSH 41024 0100            64     280/  2/  4 1011.8R
CAPRS NRSH 41029 NOT AVBL
EDISTO     41004 0200            68 67  220/  6/  6 1011.9R
WVE H/P(F/S)=  3/ 8 WND WVE H/P(F/S)=  2/ 4 SWL H/P/D(F/S/D)=  2/ 8



..........OFFSHORE BUOYS BEYOND 100 NM OFFSHORE...........
.....IN A TRIANGLE---HAT TO BERMUDA TO BAHAMAS TO HAT.....


STATION/POSITION TIME  SKY/WX   TEMP    WIND        PRES    VSBY
                                AIR SEA DIR/SP/G
                 (UTC)          (F)     (DEG/KT/KT) (MB)    (MI)
150E HAT   41001 NOT AVBL
W BERMUDA  41048 0142            69 69  300/ 21/ 25 1008.4R
WVE H/P(F/S)=  6/ 7 WND WVE H/P(F/S)=  7/ 7 SWL H/P/D(F/S/D)=  2/200/14

ATLANTIC S 41049 0146            75 75  250/ 14/ 17 1012.9
WVE H/P(F/S)=  5/ 7 WND WVE H/P(F/S)=  3/ 5 SWL H/P/D(F/S/D)=  3/160/ 7

E BAHAMAS  41046 NOT AVBL
NE BAHAMAS 41047 0052            75 75  290/ 12/ 14 1014.3
WVE H/P(F/S)=  4/ 5 WND WVE H/P(F/S)=  3/ 5 SWL H/P/D(F/S/D)=  3/ 20/ 7

120E CANVRL41010 0200            74 75  230/  4/  6 1014.3R
WVE H/P(F/S)=  3/ 8 WND WVE H/P(F/S)=  2/ 4 SWL H/P/D(F/S/D)=  2/ 70/ 8


END




U.S. Dept. of Commerce
NOAA National Weather Service
1325 East West Highway
Silver Spring, MD 20910
E-mail: w-nws.webmaster@noaa.gov
Page last modified: May 16, 2007
NATIONAL WEATHER SERVICE: for Safety, for Work, for Fun - FOR LIFE